This is the latest recevied weather packets stored in our database for station/object DH0DM-13. If no packets are shown the sender has not sent any weather packets the latest 10 day(s).
| Time | Temp. | Humidity | Pressure | Rain* | Wind** | Luminosity | Snow |
|---|---|---|---|---|---|---|---|
| 1777778303 | 15.56° C | 41% | 988.7 hPa | 0 mm | 5.81 m/s, 175° | - | - |
| 1777777702 | 16.11° C | 40% | 988.8 hPa | 0 mm | 6.71 m/s, 144° | - | - |
| 1777777101 | 16.11° C | 41% | 988.7 hPa | 0 mm | 0.45 m/s, 2° | - | - |
| 1777776500 | 15.56° C | 41% | 988.7 hPa | 0 mm | 4.02 m/s, 127° | - | - |
| 1777775899 | 16.11° C | 41% | 988.9 hPa | 0 mm | 3.13 m/s, 114° | - | - |
| 1777775298 | 16.11° C | 41% | 989 hPa | 0 mm | 6.26 m/s, 159° | - | - |
| 1777774697 | 16.11° C | 41% | 988.9 hPa | 0 mm | 1.34 m/s, 173° | - | - |
| 1777774097 | 16.11° C | 41% | 989 hPa | 0 mm | 7.15 m/s, 142° | - | - |
| 1777773496 | 16.11° C | 41% | 989 hPa | 0 mm | 4.47 m/s, 128° | - | - |
| 1777772895 | 15.56° C | 42% | 989 hPa | 0 mm | 1.79 m/s, 222° | - | - |
| 1777772294 | 16.11° C | 41% | 989.1 hPa | 0 mm | 2.24 m/s, 139° | - | - |
| 1777771693 | 16.11° C | 40% | 989 hPa | 0 mm | 4.92 m/s, 190° | - | - |
| 1777771092 | 16.11° C | 40% | 989.1 hPa | 0 mm | 5.81 m/s, 136° | - | - |
| 1777770491 | 16.11° C | 40% | 989.3 hPa | 0 mm | 3.58 m/s, 218° | - | - |
| 1777769890 | 15.56° C | 40% | 989.3 hPa | 0 mm | 1.34 m/s, 244° | - | - |
| 1777769289 | 16.11° C | 39% | 989.3 hPa | 0 mm | 3.58 m/s, 200° | - | - |
| 1777768689 | 16.11° C | 38% | 989.3 hPa | 0 mm | 2.68 m/s, 147° | - | - |
| 1777768087 | 16.11° C | 38% | 989.4 hPa | 0 mm | 6.71 m/s, 183° | - | - |
| 1777767487 | 16.11° C | 37% | 989.7 hPa | 0 mm | 1.79 m/s, 226° | - | - |
| 1777766886 | 16.11° C | 37% | 989.6 hPa | 0 mm | 3.58 m/s, 324° | - | - |
| 1777766285 | 16.11° C | 36% | 989.6 hPa | 0 mm | 5.36 m/s, 154° | - | - |
| 1777765684 | 16.67° C | 36% | 989.7 hPa | 0 mm | 0.45 m/s, 192° | - | - |
| 1777765084 | 16.11° C | 36% | 989.8 hPa | 0 mm | 6.26 m/s, 67° | - | - |
| 1777764482 | 16.11° C | 36% | 990 hPa | 0 mm | 6.26 m/s, 153° | - | - |
| 1777763881 | 16.11° C | 36% | 990.1 hPa | 0 mm | 4.92 m/s, 216° | - | - |
* Rain since midnight (hover to see other rain measurements)
** Current wind speed in m/s (hover to see current wind gust speed)